This is the latest recevied weather packets stored in our database for station/object DL9TK-10. If no packets are shown the sender has not sent any weather packets the latest 10 day(s).
| Time | Temp. | Humidity | Pressure | Rain* | Wind** | Luminosity | Snow |
|---|---|---|---|---|---|---|---|
| 1778150626 | 19.44° C | 35% | 1016.7 hPa | - | - | - | - |
| 1778149726 | 18.89° C | 34% | 1016.7 hPa | - | - | - | - |
| 1778148826 | 18.89° C | 36% | 1016.5 hPa | - | - | - | - |
| 1778147926 | 18.33° C | 37% | 1016.5 hPa | - | - | - | - |
| 1778147026 | 17.78° C | 37% | 1016.2 hPa | - | - | - | - |
| 1778146126 | 17.78° C | 38% | 1016.1 hPa | - | - | - | - |
| 1778145226 | 17.22° C | 41% | 1016.1 hPa | - | - | - | - |
| 1778144326 | 16.67° C | 42% | 1016 hPa | - | - | - | - |
| 1778143426 | 16.11° C | 43% | 1016 hPa | - | - | - | - |
| 1778142526 | 15.56° C | 44% | 1015.8 hPa | - | - | - | - |
| 1778141626 | 15° C | 45% | 1015.7 hPa | - | - | - | - |
| 1778140725 | 14.44° C | 46% | 1015.7 hPa | - | - | - | - |
| 1778139825 | 13.89° C | 46% | 1015.6 hPa | - | - | - | - |
| 1778138925 | 13.33° C | 47% | 1015.5 hPa | - | - | - | - |
| 1778138025 | 13.33° C | 48% | 1015.4 hPa | - | - | - | - |
| 1778137125 | 12.78° C | 48% | 1015.4 hPa | - | - | - | - |
| 1778136225 | 12.22° C | 48% | 1015.3 hPa | - | - | - | - |
| 1778135325 | 11.67° C | 49% | 1015.1 hPa | - | - | - | - |
| 1778134425 | 11.67° C | 50% | 1015 hPa | - | - | - | - |
| 1778133525 | 11.67° C | 49% | 1014.8 hPa | - | - | - | - |
| 1778132625 | 11.11° C | 49% | 1014.8 hPa | - | - | - | - |
| 1778131725 | 11.11° C | 49% | 1014.6 hPa | - | - | - | - |
| 1778130825 | 11.11° C | 50% | 1014.5 hPa | - | - | - | - |
| 1778129925 | 10.56° C | 52% | 1014.3 hPa | - | - | - | - |
| 1778129025 | 10.56° C | 52% | 1014.2 hPa | - | - | - | - |
* Rain since midnight (hover to see other rain measurements)
** Current wind speed in m/s (hover to see current wind gust speed)